Warnock, OH (43967)

6:22 PM EST on February 14, 2016 (GMT -0500)
Morristown, Ohio | | Change Station
CLOSE
Current Station
Personal Weather Station
Location: Belmont, OH
Elevation: 1283 ft
Nearby Weather Stations

Elev 1283 ft 40.08 °N, 81.06 °W | Updated 10 minutes ago

Partly Cloudy
Partly Cloudy
17.2 °F
Feels Like 17 °F
N
1.7
Wind Variable Wind from ESE

Today
High -- | Low -- °F
--% Chance of Precip.
Yesterday
High -- | Low -- °F
Precip. -- in
Pressure 30.38 in
Visibility 10.0 miles
Clouds Clear
Windchill 17 °F
Dew Point 8 °F
Humidity 66%
Rainfall 0.00 in
Snow Depth Not available.
7:18 AM 5:57 PM
Waxing Crescent, 46% visible
METAR KHLG 142253Z 10006KT 10SM CLR M08/M18 A3029 RMK AO2 SLP285 T10831178
Pressure 30.38 in
Visibility 10.0 miles
Clouds Clear
Windchill 17 °F
Dew Point 8 °F
Humidity 66%
Rainfall 0.00 in
Snow Depth Not available.
7:18 AM 5:57 PM
Waxing Crescent, 46% visible
METAR KHLG 142253Z 10006KT 10SM CLR M08/M18 A3029 RMK AO2 SLP285 T10831178

10-Day Weather Forecast

Almanac

Astronomy

Feb. 14, 2016 Rise Set
Actual Time
Civil Twilight
Nautical Twilight
Astronomical Twilight
Moon
Length of Visible Light
Length of Day
Tomorrow will be .
, % of the Moon is Illuminated

Today's Extremes

State Highs State Lows

Community

WunderPhotos

Upload Photos

1,892,915 photos uploaded!

WunderBlog® & News

Nearby

Air Quality

  Air Quality AQ Index Pollutant
Not available.

Snow Depth

Station Depth Elevation

Earthquake Activity

City Distance Mag. Time & Date
Minimum magnitude displayed is 2.5.

Coastal Water Temperatures

Place Temperature

Stations

Nearby Weather Stations

Station Location Temp. Windchill Dew Point Humidity Wind Precip. Elev Updated Type
                   

Watches & Warnings

There are currently no watches in effect.